AirNav    Bose A20 Aviation Headset
 
 831 users online  

KAJO Corona Municipal Airport
Corona, California, USA

GOING TO CORONA?


FAA INFORMATION EFFECTIVE 15 AUGUST 2019

Location

FAA Identifier: AJO
Lat/Long: 33-53-51.5547N 117-36-08.7831W
33-53.859245N 117-36.146385W
33.8976541,-117.6024398
(estimated)
Elevation: 533 ft. / 162.5 m (surveyed)
Variation: 14E (1980)
From city: 3 miles NW of CORONA, CA
Time zone: UTC -7 (UTC -8 during Standard Time)
Zip code: 92880

Airport Operations

Airport use: Open to the public
Activation date: 04/1960
Control tower: no
ARTCC: LOS ANGELES CENTER
FSS: RIVERSIDE FLIGHT SERVICE STATION
NOTAMs facility: AJO (NOTAM-D service available)
Attendance: MON-FRI 0700-1700
Pattern altitude: NO TURNS ONTO XW LEG TIL ACFT IS WI 300 FT OF RECOMMENDED TPA.
Wind indicator: lighted
Segmented circle: yes
Lights: ACTVT MIRL RY 07/25 VASI & REIL RY 25 - CTAF.
Beacon: white-green (lighted land airport)
Operates sunset to sunrise.

Airport Communications

CTAF/UNICOM: 122.7
WX AWOS-3PT: 132.175 (951-340-4764)
SOCAL APPROACH: 135.4
SOCAL DEPARTURE: 135.4
WX ASOS at CNO (5 nm N): PHONE 909-393-5823
WX ASOS at RAL (8 nm NE): 128.8 (951-352-4392)
WX ASOS at ONT (10 nm N): PHONE 909-937-2186
WX AWOS-3P at CCB (14 nm N): 119.525 (909-985-4731)
WX AWOS-3PT at POC (15 nm NW): 124.4 (909-596-1523)
WX ASOS at SNA (19 nm SW): PHONE 714-424-0590
WX ASOS at FUL (19 nm W): PHONE 714-870-1372
  • FOR CLNC DEL CALL SOCAL APCH (800) 448-3724.

Nearby radio navigation aids

VOR radial/distance  VOR name  Freq  Var
PDZr236/3.8PARADISE VORTAC112.2015E
RALr232/(8.3)RIVERSIDE VOR112.4014E
POMr125/14.2POMONA VORTAC110.4015E
ELBr012/14.8EL TORO VOR/DME117.2014E
HDFr275/(22.0)HOMELAND VOR113.4014E
SLIr058/23.6SEAL BEACH VORTAC115.7015E

Airport Services

Fuel available: 100LL
Parking: tiedowns
Airframe service: MAJOR
Powerplant service: MAJOR
Bottled oxygen: NONE
Bulk oxygen: NONE

Runway Information

Runway 7/25

Dimensions: 3200 x 60 ft. / 975 x 18 m
Surface: asphalt, in fair condition
Weight bearing capacity: 
Single wheel: 12.0
Runway edge lights: medium intensity
RUNWAY 7  RUNWAY 25
Latitude: 33-53.855827N33-53.863912N
Longitude: 117-36.462810W117-35.830277W
Elevation: 515.0 ft.533.0 ft.
Traffic pattern: rightleft
Runway heading: 075 magnetic, 089 true255 magnetic, 269 true
Displaced threshold: 194 ft.196 ft.
Markings: basic, in fair conditionbasic, in fair condition
Visual slope indicator: 4-box VASI on left (4.00 degrees glide path)
Runway end identifier lights: yes
Touchdown point: yes, no lightsyes, no lights
Obstructions: 40 ft. trees, 400 ft. from runway, 265 ft. both sides of centerline, 5:1 slope to clear
RWY 07 APCH RATIO TO DSPLCD THR 20:1
6 ft. fence, lighted, 200 ft. from runway
RWY 25 APCH RATIO TO DSPLCD THR 34:1.

Airport Ownership and Management from official FAA records

Ownership: Publicly-owned
Owner: CITY OF CORONA
400 SOUTH VICENTIA AVE, 915 WILSHIRE BOULEVARD
CORONA, CA 92882
Phone (951)736-2289
ON LEASE TO CITY OF CORONA FROM ARMY CORPS OF ENGINEERS.
Manager: CURTIS SHOWALTER
755 PUBLIC SAFETY WAY
CORONA, CA 92880
Phone (951) 279-3677
AIRPORT ADDRESS: 1900 AVIATION DRIVE, CORONA, CA 92880.

Airport Operational Statistics

Aircraft based on the field: 149
Single engine airplanes: 134
Multi engine airplanes: 13
Helicopters: 2
    
Aircraft operations: avg 110/day *
72% local general aviation
28% transient general aviation
* for 12-month period ending 31 December 2018

Additional Remarks

NOISE ABATEMENT PROCEDURES: RY 25 STRAIGHT-IN APCH NOT RECOMMENDED. AVOID FLYING OVER HOUSES ON BLUFF AT EAST END. FLY OVER WASH/CREEK. RY 07 REQUIRES A 15 DEG RIGHT TURN AT DEP END TO FOLLOW WASH/CREEK.
UNLGTD TWR 828 FT MSL 3 MILES E OF ARPT.
NO INTERSECTION TAKEOFFS.
NO TOUCH AND GO OPERATIONS ON WKNDS AND HOLS.
NO HELICOPTER TRNG AFTER 2000

Instrument Procedures

NOTE: All procedures below are presented as PDF files. If you need a reader for these files, you should download the free Adobe Reader.

NOT FOR NAVIGATION. Please procure official charts for flight.
FAA instrument procedures published for use from 15 August 2019 at 0901Z to 12 September 2019 at 0900Z.

 
STARs - Standard Terminal Arrivals
SETER FIVE **CHANGED**   download (264KB)
ZIGGY SEVEN **CHANGED**   2 pages: [1] [2] (416KB)
 
IAPs - Instrument Approach Procedures
VOR OR GPS-A   download (216KB)
NOTE: Special Take-Off Minimums/Departure Procedures apply   download (132KB)

Other nearby airports with instrument procedures:

KCNO - Chino Airport (5 nm N)
KRAL - Riverside Municipal Airport (8 nm NE)
KONT - Ontario International Airport (10 nm N)
KRIR - Flabob Airport (11 nm NE)
KCCB - Cable Airport (14 nm N)
KPOC - Brackett Field Airport (15 nm NW)
KRIV - March Air Reserve Base (17 nm E)
KSNA - John Wayne-Orange County Airport (19 nm SW)
KFUL - Fullerton Municipal Airport (19 nm W)
 
Loc | Ops | Rwys | IFR | FBO | Links
Com | Nav | Svcs | Stats | Notes

San Bernardino International Airport Authority
 
Area around KAJO (Corona Municipal Airport)
 
Road maps at: MapQuest Bing Google
 
Aerial photo
WARNING: Photo may not be current or correct
Aerial photo of KAJO (Corona Municipal Airport)
Photo by Fred Emmert AirViews.com
Photo taken 09-Feb-2015
looking southeast.

Do you have a better or more recent aerial photo of Corona Municipal Airport that you would like to share? If so, please send us your photo.

 
Sectional chart

 
Airport diagram
CAUTION: Diagram may not be current
Diagram of KAJO (Corona Municipal Airport)
 
Airport distance calculator
Flying to Corona Municipal Airport? Find the distance to fly.

From to KAJO

Sunrise and sunset
Times for 24-Aug-2019
 Local
(UTC-7)
 Zulu
(UTC)
Morning civil twilight05:5412:54
Sunrise06:2013:20
Sunset19:2602:26
Evening civil twilight19:5202:52

Current date and time
Zulu (UTC)  25-Aug-2019 01:10:51
Local (UTC-7)  24-Aug-2019 18:10:51
 
METAR
KAJO 250056Z AUTO 30011G16KT 10SM CLR 32/14 A2988 RMK AO2 SLP113 T03170144
KCNO 
5nm N 
250053Z 25013KT 10SM CLR 33/11 A2990 RMK AO2 SLP118 T03280111 $
KRAL 
8nm NE 
250053Z 27012G17KT 10SM CLR 33/12 A2989 RMK AO2 SLP104 T03330117
KONT 
9nm N 
250053Z 24013KT 10SM FEW070 FEW250 33/14 A2990 RMK AO2 SLP106 T03330139
KCCB 
14nm N 
119.525 909-985-4731
250055Z AUTO 26012G17KT 220V290 10SM CLR 32/15 A2993 RMK AO2
KPOC 
15nm NW 
250047Z 24010KT 10SM CLR 32/17 A2992
KRIV 
17nm E 
250058Z AUTO 29011KT 10SM CLR 33/12 A2993 RMK AO2 SLP122 T03320116
KFUL 
19nm W 
250053Z VRB05KT 10SM FEW015 31/17 A2988 RMK AO2 SLP116 T03110167
KSNA 
19nm SW 
250053Z 20009KT 10SM CLR 27/17 A2989 RMK AO2 SLP122 T02670172
TAF
KONT 
9nm N 
241741Z 2418/2524 VRB04KT P6SM SKC FM242100 26013G20KT P6SM SKC FM250400 VRB04KT P6SM SKC
KRIV 
17nm E 
242002Z 2420/2602 15009KT 9999 SKC QNH2993INS BECMG 2420/2421 31009KT 9999 SKC QNH2991INS TEMPO 2421/2501 31012G18KT BECMG 2503/2504 29004KT 9999 SKC QNH2996INS BECMG 2519/2520 31009KT 9999 SKC QNH2994INS TEMPO 2520/2602 31012G18KT TX37/2422Z TN15/2513Z
KSNA 
19nm SW 
241741Z 2418/2518 22008KT P6SM SKC FM250300 VRB04KT P6SM SKC FM251200 VRB03KT P6SM BKN012 FM251600 VRB04KT P6SM FEW015
NOTAMs
Click for the latest NOTAMs
NOTAMs are issued by the DoD/FAA and will open in a separate window not controlled by AirNav.

 

 
 

FBO, Fuel Providers, and Aircraft Ground Support

  
 Business Name 
 
 Contact 
 
 Services / Description 
 
Fuel Prices
 
Comments
  
 Corona Air Ventures
951-737-1300
[web site]
Aviation fuel, Aircraft parking (ramp or tiedown), Public telephone, Restrooms
 
Wireless Internet Access (WiFi)  
 
More info about Corona Air Ventures
Phillips 66
100LL
AS $4.96 
GUARANTEED
 
   write
AS=Assisted/Self Service
Update Fuel Prices
 

Would you like to see your business listed on this page?

 If your business provides an interesting product or service to pilots, flight crews, aircraft, or users of the Corona Municipal Airport, you should consider listing it here.  To start the listing process, click on the button below
 
Add a business
 

Other Pages about Corona Municipal Airport

discovercorona.com/...
 
Update a link
 
Copyright © AirNav, LLC. All rights reserved. Privacy Policy  Contact